When you browse on this site, cookies collect data to enhance your experience and personalize the content and advertising you see.
Visit our Privacy Policy to learn more. By continuing to use the site, you agree to this use of cookies and data.
  • în România
  • Lista ţărilor
  • Pe 7 zile
  • Temperatura apei
  • Meteo pe hartă
  • Widget-uri
  • user-avatar
    Intrare

    Meteo pe oră la Swansea

    Astăzi, 15 Noiembrie, Vineri

    Timp Temperatura Precipitaţii Vânt Presiune Umiditate
    00:00 +2°C° 0 mm 7 m/s 753 mmHg 93%
    01:00 +2°C° 0 mm 6 m/s 753 mmHg 94%
    02:00 +2°C° 0 mm 6 m/s 753 mmHg 94%
    03:00 +2°C° 0 mm 6 m/s 753 mmHg 94%
    04:00 +3°C° 0 mm 6 m/s 753 mmHg 93%
    05:00 +3°C° 0 mm 6 m/s 754 mmHg 93%
    06:00 +3°C° 0 mm 5 m/s 754 mmHg 92%
    07:00 +3°C° 0 mm 5 m/s 754 mmHg 92%
    08:00 +3°C° 0 mm 5 m/s 754 mmHg 91%
    09:00 +5°C° 0 mm 5 m/s 754 mmHg 90%
    10:00 +4°C° 0 mm 6 m/s 754 mmHg 88%
    11:00 +5°C° 0 mm 6 m/s 755 mmHg 85%
    12:00 +7°C° 0 mm 6 m/s 755 mmHg 83%
    13:00 +7°C° 0 mm 6 m/s 754 mmHg 83%
    14:00 +6°C° 0 mm 7 m/s 754 mmHg 83%
    15:00 +6°C° 0 mm 7 m/s 754 mmHg 83%
    16:00 +5°C° 0 mm 7 m/s 754 mmHg 84%
    17:00 +5°C° 0 mm 7 m/s 754 mmHg 86%
    18:00 +4°C° 0 mm 7 m/s 754 mmHg 87%
    19:00 +4°C° 0 mm 7 m/s 754 mmHg 87%
    20:00 +4°C° 0 mm 7 m/s 754 mmHg 87%
    21:00 +3°C° 0 mm 7 m/s 754 mmHg 87%
    22:00 +3°C° 0 mm 7 m/s 754 mmHg 87%
    23:00 +3°C° 0 mm 7 m/s 754 mmHg 87%

    Mâine, 16 Noiembrie, Sâmbătă

    Timp Temperatura Precipitaţii Vânt Presiune Umiditate
    00:00 +1°C° 0 mm 8 m/s 753 mmHg 86%
    01:00 +3°C° 0 mm 7 m/s 753 mmHg 86%
    02:00 +3°C° 0 mm 7 m/s 753 mmHg 86%
    03:00 +4°C° 0 mm 7 m/s 753 mmHg 86%
    04:00 +3°C° 0 mm 6 m/s 753 mmHg 87%
    05:00 +3°C° 0 mm 6 m/s 753 mmHg 89%
    06:00 +3°C° 0 mm 5 m/s 753 mmHg 90%
    07:00 +5°C° 0 mm 4 m/s 754 mmHg 90%
    08:00 +5°C° 0 mm 4 m/s 754 mmHg 90%
    09:00 +5°C° 0 mm 3 m/s 754 mmHg 91%
    10:00 +7°C° 0 mm 2 m/s 754 mmHg 89%
    11:00 +7°C° 0 mm 2 m/s 754 mmHg 87%
    12:00 +9°C° 0 mm 1 m/s 755 mmHg 85%
    13:00 +9°C° 0 mm 1 m/s 754 mmHg 86%
    14:00 +9°C° 0 mm 1 m/s 754 mmHg 87%
    15:00 +9°C° 0 mm 1 m/s 754 mmHg 87%
    16:00 +9°C° 0.1 mm 1 m/s 754 mmHg 88%
    17:00 +8°C° 0.1 mm 1 m/s 755 mmHg 89%
    18:00 +7°C° 0.1 mm 0 m/s 755 mmHg 90%
    19:00 +8°C° 0.1 mm 1 m/s 755 mmHg 90%
    20:00 +8°C° 0.1 mm 1 m/s 755 mmHg 90%
    21:00 +7°C° 0.1 mm 1 m/s 755 mmHg 90%
    22:00 +7°C° 0.1 mm 1 m/s 755 mmHg 90%
    23:00 +6°C° 0.1 mm 2 m/s 756 mmHg 90%

    Poimâine, 17 Noiembrie, Duminică

    Timp Temperatura Precipitaţii Vânt Presiune Umiditate
    00:00 +6°C° 0.1 mm 2 m/s 756 mmHg 90%
    01:00 +7°C° 0.5 mm 2 m/s 756 mmHg 91%
    02:00 +7°C° 0.5 mm 2 m/s 756 mmHg 92%
    03:00 +7°C° 0.5 mm 2 m/s 756 mmHg 93%
    04:00 +7°C° 1 mm 2 m/s 756 mmHg 94%
    05:00 +7°C° 1 mm 2 m/s 756 mmHg 94%
    06:00 +7°C° 1 mm 3 m/s 756 mmHg 94%
    07:00 +7°C° 0.2 mm 3 m/s 757 mmHg 94%
    08:00 +7°C° 0.2 mm 3 m/s 757 mmHg 93%
    09:00 +7°C° 0.2 mm 3 m/s 757 mmHg 92%
    10:00 +7°C° 0.1 mm 3 m/s 758 mmHg 90%
    11:00 +8°C° 0.1 mm 3 m/s 758 mmHg 88%
    12:00 +8°C° 0.1 mm 3 m/s 758 mmHg 87%
    13:00 +8°C° 0.1 mm 3 m/s 758 mmHg 88%
    14:00 +8°C° 0.1 mm 3 m/s 758 mmHg 88%
    15:00 +8°C° 0.1 mm 3 m/s 758 mmHg 89%
    16:00 +7°C° 0 mm 3 m/s 758 mmHg 89%
    17:00 +7°C° 0 mm 3 m/s 759 mmHg 90%
    18:00 +5°C° 0 mm 3 m/s 759 mmHg 90%
    19:00 +5°C° 0 mm 3 m/s 759 mmHg 91%
    20:00 +4°C° 0 mm 3 m/s 759 mmHg 91%
    21:00 +4°C° 0 mm 3 m/s 759 mmHg 91%
    22:00 +4°C° 0 mm 3 m/s 759 mmHg 91%
    23:00 +3°C° 0 mm 3 m/s 759 mmHg 92%

    18 Noiembrie, Luni

    Timp Temperatura Precipitaţii Vânt Presiune Umiditate
    00:00 +3°C° 0 mm 3 m/s 759 mmHg 92%
    01:00 +4°C° 0 mm 3 m/s 759 mmHg 91%
    02:00 +4°C° 0 mm 4 m/s 759 mmHg 91%
    03:00 +5°C° 0 mm 4 m/s 759 mmHg 91%
    04:00 +5°C° 0 mm 4 m/s 759 mmHg 92%
    05:00 +4°C° 0 mm 4 m/s 759 mmHg 92%
    06:00 +4°C° 0 mm 4 m/s 760 mmHg 93%
    07:00 +4°C° 0 mm 4 m/s 760 mmHg 92%
    08:00 +4°C° 0 mm 4 m/s 760 mmHg 91%
    09:00 +4°C° 0 mm 4 m/s 760 mmHg 91%
    10:00 +5°C° 0 mm 4 m/s 760 mmHg 87%
    11:00 +6°C° 0 mm 4 m/s 759 mmHg 83%
    12:00 +8°C° 0 mm 3 m/s 759 mmHg 80%
    13:00 +8°C° 0 mm 3 m/s 759 mmHg 80%
    14:00 +8°C° 0 mm 3 m/s 759 mmHg 80%
    15:00 +7°C° 0 mm 2 m/s 758 mmHg 81%
    16:00 +7°C° 0 mm 2 m/s 758 mmHg 81%
    17:00 +7°C° 0 mm 3 m/s 758 mmHg 81%
    18:00 +5°C° 0 mm 3 m/s 758 mmHg 82%
    19:00 +6°C° 0 mm 2 m/s 758 mmHg 83%
    20:00 +5°C° 0 mm 2 m/s 757 mmHg 84%
    21:00 +6°C° 0 mm 1 m/s 757 mmHg 85%
    22:00 +5°C° 0 mm 1 m/s 757 mmHg 86%
    23:00 +4°C° 0 mm 2 m/s 757 mmHg 88%

    19 Noiembrie, Marţi

    Timp Temperatura Precipitaţii Vânt Presiune Umiditate
    00:00 +4°C° 0 mm 2 m/s 757 mmHg 89%
    01:00 +3°C° 0 mm 2 m/s 756 mmHg 89%
    02:00 +3°C° 0 mm 2 m/s 756 mmHg 88%
    03:00 +4°C° 0 mm 1 m/s 755 mmHg 88%
    04:00 +3°C° 0 mm 2 m/s 755 mmHg 87%
    05:00 +2°C° 0 mm 2 m/s 755 mmHg 87%
    06:00 +2°C° 0 mm 2 m/s 754 mmHg 87%
    07:00 +3°C° 0 mm 2 m/s 754 mmHg 86%
    08:00 +3°C° 0 mm 2 m/s 754 mmHg 85%
    09:00 +3°C° 0 mm 2 m/s 754 mmHg 85%
    10:00 +4°C° 0 mm 3 m/s 754 mmHg 81%
    11:00 +5°C° 0 mm 3 m/s 753 mmHg 78%
    12:00 +7°C° 0 mm 3 m/s 753 mmHg 74%
    13:00 +5°C° 0 mm 3 m/s 752 mmHg 77%
    14:00 +5°C° 0 mm 4 m/s 752 mmHg 80%
    15:00 +5°C° 0 mm 4 m/s 751 mmHg 82%
    16:00 +4°C° 0 mm 4 m/s 751 mmHg 84%
    17:00 +2°C° 0 mm 5 m/s 751 mmHg 86%
    18:00 +2°C° 0 mm 5 m/s 751 mmHg 88%
    19:00 +2°C° 0 mm 5 m/s 750 mmHg 88%
    20:00 +2°C° 0 mm 6 m/s 750 mmHg 88%
    21:00 +2°C° 0 mm 6 m/s 750 mmHg 88%
    22:00 +3°C° 0.3 mm 7 m/s 749 mmHg 88%
    23:00 +2°C° 0.3 mm 8 m/s 749 mmHg 88%

    20 Noiembrie, Miercuri

    Timp Temperatura Precipitaţii Vânt Presiune Umiditate
    00:00 +2°C° 0.3 mm 9 m/s 749 mmHg 88%
    01:00 +3°C° 0.2 mm 9 m/s 748 mmHg 90%
    02:00 +4°C° 0.2 mm 8 m/s 748 mmHg 91%
    03:00 +5°C° 0.2 mm 8 m/s 748 mmHg 93%
    04:00 +5°C° 0.1 mm 8 m/s 748 mmHg 90%
    05:00 +6°C° 0.1 mm 8 m/s 748 mmHg 86%
    06:00 +6°C° 0.1 mm 8 m/s 748 mmHg 83%
    07:00 +6°C° 0 mm 7 m/s 749 mmHg 85%
    08:00 +6°C° 0 mm 5 m/s 749 mmHg 86%
    09:00 +6°C° 0 mm 4 m/s 749 mmHg 88%
    10:00 +7°C° 0 mm 4 m/s 750 mmHg 85%
    11:00 +8°C° 0 mm 4 m/s 750 mmHg 82%
    12:00 +10°C° 0 mm 4 m/s 750 mmHg 79%
    13:00 +8°C° 0 mm 4 m/s 750 mmHg 81%
    14:00 +8°C° 0 mm 4 m/s 750 mmHg 83%
    15:00 +8°C° 0 mm 4 m/s 750 mmHg 84%
    16:00 +7°C° 0 mm 4 m/s 750 mmHg 87%
    17:00 +6°C° 0 mm 4 m/s 750 mmHg 89%
    18:00 +5°C° 0 mm 4 m/s 751 mmHg 92%
    19:00 +5°C° 0 mm 5 m/s 751 mmHg 92%
    20:00 +3°C° 0 mm 5 m/s 751 mmHg 92%
    21:00 +3°C° 0 mm 5 m/s 751 mmHg 92%
    22:00 +3°C° 0 mm 5 m/s 751 mmHg 92%
    23:00 +2°C° 0 mm 5 m/s 751 mmHg 91%
    Arată mai mult